QPF
0.00 0.00 0.00 0.00 0.00 0.00 0.00 0.00 0.00 0.00 0.00 0.01 0.01 0.01 0.02 0.02 0.02 0.01 0.02 0.03 0.03 0.03 0.04 0.04 0.04 0.04 0.04 0.05 0.05 0.04 0.04 0.04 0.04 0.03 0.02 0.02 0.03 0.05 0.05 0.06 0.08 0.08 0.08
0.00 0.00 0.00 0.00 0.00 0.00 0.00 0.00 0.00 0.00 0.00 0.00 0.00 0.01 0.02 0.02 0.01 0.01 0.02 0.02 0.02 0.02 0.03 0.04 0.05 0.06 0.05 0.05 0.06 0.06 0.06 0.06 0.05 0.03 0.02 0.02 0.02 0.03 0.05 0.06 0.09 0.11 0.13
0.00 0.00 0.00 0.00 0.00 0.00 0.00 0.00 0.00 0.00 0.00 0.00 0.00 0.00 0.01 0.02 0.02 0.02 0.02 0.02 0.02 0.02 0.02 0.02 0.03 0.04 0.05 0.05 0.04 0.04 0.05 0.05 0.06 0.06 0.05 0.04 0.04 0.03 0.02 0.04 0.08 0.12 0.18
0.00 0.00 0.00 0.00 0.00 0.00 0.00 0.00 0.00 0.00 0.00 0.00 0.00 0.00 0.00 0.01 0.02 0.01 0.02 0.02 0.02 0.02 0.01 0.02 0.04 0.04 0.03 0.03 0.03 0.03 0.03 0.04 0.05 0.06 0.06 0.06 0.05 0.05 0.04 0.04 0.06 0.09 0.14
0.01 0.01 0.00 0.00 0.00 0.00 0.00 0.00 0.00 0.00 0.00 0.00 0.00 0.00 0.01 0.01 0.02 0.02 0.02 0.03 0.03 0.03 0.02 0.02 0.03 0.04 0.04 0.04 0.03 0.03 0.04 0.05 0.05 0.06 0.10 0.12 0.08 0.05 0.04 0.04 0.05 0.06 0.08
0.00 0.00 0.00 0.00 0.00 0.00 0.00 0.00 0.00 0.00 0.00 0.00 0.00 0.00 0.01 0.01 0.01 0.01 0.02 0.02 0.03 0.03 0.03 0.02 0.02 0.02 0.05 0.05 0.03 0.03 0.03 0.03 0.03 0.04 0.05 0.05 0.05 0.05 0.06 0.04 0.03 0.05 0.06
0.01 0.01 0.02 0.05 0.02 0.01 0.01 0.01 0.01 0.02 0.01 0.01 0.01 0.01 0.01 0.02 0.01 0.00 0.01 0.02 0.02 0.02 0.01 0.01 0.01 0.02 0.03 0.05 0.06 0.04 0.04 0.03 0.03 0.03 0.03 0.02 0.03 0.04 0.05 0.05 0.04 0.04 0.03
0.01 0.02 0.02 0.04 0.04 0.03 0.03 0.03 0.03 0.04 0.03 0.02 0.02 0.02 0.02 0.02 0.01 0.01 0.01 0.01 0.01 0.01 0.01 0.01 0.01 0.02 0.02 0.03 0.04 0.05 0.05 0.04 0.03 0.03 0.02 0.02 0.02 0.03 0.04 0.04 0.04 0.05 0.02
0.03 0.05 0.11 0.10 0.06 0.03 0.04 0.05 0.04 0.04 0.04 0.03 0.02 0.02 0.02 0.02 0.02 0.01 0.01 0.01 0.01 0.01 0.02 0.02 0.01 0.02 0.03 0.03 0.04 0.04 0.05 0.04 0.03 0.03 0.02 0.02 0.02 0.03 0.03 0.04 0.05 0.05 0.03
0.02 0.04 0.08 0.06 0.04 0.04 0.05 0.06 0.08 0.05 0.06 0.06 0.04 0.02 0.02 0.02 0.01 0.01 0.01 0.01 0.01 0.01 0.02 0.02 0.01 0.01 0.01 0.02 0.03 0.04 0.05 0.06 0.05 0.04 0.03 0.02 0.02 0.02 0.02 0.03 0.04 0.04 0.04
0.02 0.02 0.04 0.09 0.09 0.08 0.09 0.09 0.09 0.07 0.08 0.07 0.05 0.04 0.03 0.02 0.02 0.02 0.02 0.01 0.01 0.02 0.02 0.02 0.02 0.02 0.02 0.02 0.03 0.05 0.05 0.06 0.05 0.05 0.03 0.03 0.03 0.02 0.02 0.02 0.03 0.03 0.03
0.02 0.02 0.05 0.13 0.10 0.08 0.11 0.11 0.10 0.09 0.07 0.06 0.05 0.06 0.07 0.04 0.03 0.03 0.02 0.02 0.02 0.02 0.02 0.02 0.02 0.02 0.02 0.03 0.04 0.05 0.04 0.04 0.04 0.04 0.03 0.02 0.02 0.03 0.03 0.03 0.02 0.01 0.01
0.04 0.03 0.03 0.04 0.05 0.05 0.07 0.07 0.08 0.08 0.06 0.04 0.04 0.04 0.04 0.04 0.03 0.04 0.03 0.03 0.03 0.04 0.04 0.03 0.02 0.02 0.03 0.04 0.05 0.05 0.04 0.04 0.04 0.03 0.02 0.02 0.02 0.02 0.03 0.02 0.01 0.01 0.01
0.05 0.04 0.03 0.04 0.07 0.08 0.07 0.06 0.07 0.08 0.06 0.05 0.04 0.03 0.03 0.03 0.03 0.03 0.03 0.03 0.04 0.06 0.04 0.02 0.02 0.03 0.05 0.05 0.06 0.05 0.05 0.04 0.04 0.03 0.02 0.02 0.03 0.03 0.03 0.03 0.02 0.02 0.02
0.03 0.03 0.03 0.03 0.07 0.09 0.07 0.06 0.06 0.06 0.05 0.04 0.03 0.03 0.03 0.04 0.04 0.04 0.05 0.06 0.06 0.04 0.02 0.02 0.03 0.05 0.06 0.05 0.06 0.06 0.05 0.05 0.05 0.04 0.03 0.02 0.03 0.03 0.03 0.03 0.03 0.03 0.03
0.02 0.03 0.04 0.04 0.06 0.10 0.09 0.06 0.05 0.04 0.04 0.04 0.04 0.05 0.05 0.06 0.05 0.05 0.04 0.04 0.04 0.03 0.02 0.03 0.04 0.06 0.06 0.05 0.06 0.06 0.07 0.06 0.05 0.04 0.04 0.05 0.04 0.03 0.03 0.03 0.04 0.05 0.04
0.03 0.06 0.07 0.06 0.05 0.06 0.06 0.05 0.05 0.05 0.05 0.06 0.05 0.04 0.04 0.06 0.06 0.04 0.03 0.03 0.03 0.03 0.03 0.04 0.06 0.06 0.06 0.06 0.07 0.09 0.09 0.07 0.06 0.05 0.06 0.08 0.07 0.07 0.06 0.06 0.05 0.04 0.04
0.05 0.06 0.05 0.04 0.04 0.06 0.07 0.08 0.07 0.06 0.07 0.10 0.10 0.05 0.04 0.04 0.07 0.07 0.08 0.07 0.06 0.04 0.04 0.04 0.05 0.06 0.06 0.07 0.09 0.10 0.10 0.08 0.06 0.06 0.07 0.08 0.07 0.06 0.08 0.07 0.04 0.03 0.04
0.03 0.03 0.05 0.06 0.04 0.04 0.05 0.04 0.05 0.07 0.07 0.06 0.07 0.07 0.06 0.06 0.07 0.07 0.09 0.08 0.07 0.06 0.05 0.05 0.04 0.06 0.07 0.08 0.10 0.09 0.08 0.07 0.07 0.06 0.06 0.06 0.06 0.08 0.10 0.08 0.07 0.05 0.04
0.03 0.03 0.02 0.04 0.06 0.03 0.03 0.04 0.05 0.07 0.10 0.10 0.07 0.08 0.08 0.08 0.08 0.10 0.11 0.11 0.09 0.09 0.10 0.09 0.08 0.07 0.08 0.10 0.09 0.08 0.07 0.06 0.06 0.06 0.06 0.06 0.06 0.07 0.09 0.08 0.06 0.04 0.03
0.02 0.02 0.02 0.02 0.03 0.03 0.03 0.04 0.07 0.08 0.10 0.07 0.06 0.07 0.08 0.10 0.13 0.16 0.17 0.17 0.17 0.16 0.16 0.15 0.13 0.11 0.08 0.08 0.08 0.09 0.07 0.05 0.04 0.04 0.04 0.04 0.05 0.06 0.06 0.06 0.05 0.04 0.03
0.02 0.01 0.01 0.01 0.01 0.02 0.02 0.03 0.05 0.07 0.08 0.07 0.05 0.06 0.09 0.12 0.15 0.22 0.24 0.25 0.22 0.19 0.16 0.13 0.12 0.09 0.07 0.06 0.07 0.08 0.07 0.06 0.05 0.04 0.04 0.04 0.05 0.05 0.04 0.03 0.02 0.03 0.02
0.03 0.02 0.01 0.01 0.01 0.01 0.01 0.01 0.01 0.02 0.03 0.05 0.06 0.06 0.07 0.10 0.15 0.24 0.30 0.27 0.22 0.17 0.15 0.13 0.10 0.08 0.08 0.08 0.09 0.11 0.10 0.09 0.08 0.06 0.05 0.03 0.03 0.02 0.02 0.02 0.02 0.02 0.01
0.05 0.02 0.01 0.01 0.01 0.01 0.01 0.01 0.01 0.02 0.03 0.05 0.06 0.08 0.09 0.10 0.14 0.18 0.18 0.17 0.14 0.12 0.11 0.10 0.09 0.09 0.09 0.08 0.09 0.09 0.09 0.09 0.08 0.05 0.04 0.03 0.02 0.02 0.02 0.01 0.01 0.01 0.00
0.02 0.01 0.01 0.01 0.01 0.01 0.02 0.02 0.03 0.04 0.04 0.05 0.06 0.08 0.09 0.13 0.16 0.15 0.14 0.12 0.11 0.10 0.09 0.08 0.09 0.09 0.10 0.11 0.12 0.11 0.09 0.07 0.06 0.06 0.05 0.04 0.02 0.02 0.02 0.01 0.01 0.01 0.00
0.01 0.01 0.01 0.02 0.01 0.02 0.02 0.03 0.04 0.04 0.05 0.06 0.06 0.07 0.09 0.10 0.12 0.11 0.09 0.08 0.08 0.08 0.07 0.08 0.10 0.11 0.11 0.12 0.14 0.12 0.09 0.08 0.07 0.06 0.04 0.03 0.03 0.02 0.02 0.01 0.01 0.01 0.01
MSLP
1008.62 1008.99 1009.34 1009.66 1009.91 1010.11 1010.27 1010.43 1010.63 1010.88 1011.21 1011.60 1012.02 1012.44 1012.82 1013.13 1013.36 1013.52 1013.64 1013.75 1013.89 1014.08 1014.36 1014.70 1015.09 1015.50 1015.88 1016.21 1016.47 1016.64 1016.75 1016.79 1016.80 1016.79 1016.77 1016.74 1016.68 1016.59 1016.47 1016.31 1016.11 1015.91 1015.71
1008.51 1008.96 1009.38 1009.72 1009.97 1010.13 1010.25 1010.37 1010.55 1010.83 1011.21 1011.67 1012.18 1012.68 1013.12 1013.46 1013.68 1013.80 1013.86 1013.91 1013.99 1014.14 1014.38 1014.70 1015.08 1015.47 1015.83 1016.14 1016.36 1016.51 1016.60 1016.65 1016.68 1016.72 1016.77 1016.82 1016.84 1016.81 1016.71 1016.54 1016.30 1016.00 1015.70
1008.20 1008.77 1009.28 1009.69 1009.97 1010.14 1010.24 1010.34 1010.51 1010.79 1011.20 1011.72 1012.29 1012.85 1013.33 1013.69 1013.91 1014.01 1014.03 1014.03 1014.05 1014.16 1014.37 1014.66 1015.02 1015.38 1015.72 1015.99 1016.18 1016.31 1016.38 1016.44 1016.51 1016.61 1016.74 1016.87 1016.99 1017.03 1016.98 1016.82 1016.55 1016.20 1015.81
1007.66 1008.35 1009.00 1009.51 1009.86 1010.07 1010.18 1010.28 1010.44 1010.72 1011.14 1011.68 1012.28 1012.87 1013.39 1013.77 1014.00 1014.09 1014.09 1014.05 1014.05 1014.13 1014.30 1014.57 1014.90 1015.24 1015.55 1015.79 1015.95 1016.05 1016.12 1016.19 1016.29 1016.44 1016.65 1016.87 1017.06 1017.19 1017.19 1017.06 1016.79 1016.40 1015.95
1006.91 1007.73 1008.51 1009.15 1009.60 1009.88 1010.03 1010.13 1010.29 1010.56 1010.97 1011.51 1012.12 1012.73 1013.27 1013.67 1013.91 1014.01 1014.00 1013.96 1013.95 1014.01 1014.17 1014.42 1014.73 1015.05 1015.33 1015.55 1015.69 1015.77 1015.82 1015.89 1016.01 1016.20 1016.45 1016.74 1017.00 1017.19 1017.25 1017.15 1016.90 1016.51 1016.03
1005.99 1006.92 1007.83 1008.60 1009.17 1009.54 1009.74 1009.88 1010.04 1010.30 1010.69 1011.22 1011.82 1012.43 1012.97 1013.39 1013.65 1013.76 1013.77 1013.74 1013.73 1013.80 1013.95 1014.19 1014.49 1014.80 1015.06 1015.26 1015.38 1015.44 1015.48 1015.54 1015.66 1015.86 1016.14 1016.45 1016.75 1016.98 1017.08 1017.03 1016.80 1016.43 1015.96
1004.98 1005.99 1007.01 1007.91 1008.59 1009.05 1009.33 1009.51 1009.68 1009.94 1010.31 1010.82 1011.40 1012.00 1012.54 1012.96 1013.24 1013.37 1013.41 1013.40 1013.41 1013.48 1013.64 1013.89 1014.18 1014.48 1014.73 1014.92 1015.03 1015.07 1015.10 1015.14 1015.24 1015.42 1015.68 1015.98 1016.29 1016.53 1016.66 1016.64 1016.46 1016.12 1015.69
1003.96 1005.02 1006.13 1007.12 1007.90 1008.45 1008.80 1009.03 1009.24 1009.50 1009.87 1010.35 1010.91 1011.49 1012.03 1012.45 1012.74 1012.89 1012.94 1012.95 1012.98 1013.07 1013.23 1013.48 1013.78 1014.08 1014.33 1014.52 1014.62 1014.66 1014.66 1014.67 1014.74 1014.88 1015.09 1015.36 1015.64 1015.87 1016.01 1016.01 1015.87 1015.60 1015.22
1003.03 1004.10 1005.24 1006.29 1007.15 1007.77 1008.20 1008.48 1008.73 1009.01 1009.39 1009.86 1010.41 1010.97 1011.49 1011.91 1012.20 1012.36 1012.43 1012.45 1012.49 1012.58 1012.75 1013.00 1013.30 1013.60 1013.86 1014.05 1014.15 1014.19 1014.17 1014.16 1014.18 1014.27 1014.42 1014.63 1014.85 1015.05 1015.18 1015.21 1015.12 1014.91 1014.62
1002.27 1003.31 1004.44 1005.50 1006.39 1007.06 1007.54 1007.88 1008.18 1008.50 1008.89 1009.38 1009.92 1010.47 1010.98 1011.38 1011.66 1011.82 1011.88 1011.91 1011.95 1012.04 1012.20 1012.45 1012.75 1013.05 1013.32 1013.52 1013.63 1013.67 1013.64 1013.60 1013.59 1013.61 1013.70 1013.84 1014.00 1014.17 1014.28 1014.33 1014.28 1014.15 1013.95
1001.76 1002.73 1003.79 1004.80 1005.66 1006.34 1006.84 1007.23 1007.58 1007.95 1008.38 1008.88 1009.43 1009.98 1010.47 1010.87 1011.13 1011.28 1011.34 1011.35 1011.38 1011.46 1011.62 1011.86 1012.15 1012.45 1012.73 1012.94 1013.07 1013.11 1013.09 1013.03 1012.98 1012.96 1012.99 1013.06 1013.17 1013.29 1013.40 1013.46 1013.46 1013.40 1013.28
1001.56 1002.40 1003.33 1004.22 1005.00 1005.63 1006.13 1006.54 1006.92 1007.34 1007.81 1008.34 1008.90 1009.45 1009.94 1010.32 1010.58 1010.71 1010.76 1010.77 1010.79 1010.87 1011.01 1011.24 1011.53 1011.83 1012.11 1012.34 1012.48 1012.54 1012.52 1012.46 1012.39 1012.33 1012.31 1012.34 1012.41 1012.50 1012.59 1012.66 1012.70 1012.70 1012.67
1001.66 1002.33 1003.07 1003.79 1004.42 1004.96 1005.40 1005.80 1006.20 1006.64 1007.15 1007.70 1008.29 1008.84 1009.33 1009.71 1009.96 1010.09 1010.14 1010.16 1010.18 1010.25 1010.40 1010.63 1010.91 1011.22 1011.50 1011.73 1011.89 1011.95 1011.95 1011.89 1011.81 1011.74 1011.69 1011.69 1011.73 1011.79 1011.88 1011.96 1012.03 1012.08 1012.10
1002.05 1002.50 1003.01 1003.50 1003.94 1004.33 1004.68 1005.02 1005.41 1005.86 1006.38 1006.95 1007.54 1008.11 1008.59 1008.97 1009.23 1009.38 1009.45 1009.49 1009.54 1009.63 1009.79 1010.03 1010.32 1010.62 1010.91 1011.14 1011.30 1011.38 1011.38 1011.33 1011.25 1011.17 1011.12 1011.10 1011.12 1011.17 1011.25 1011.34 1011.43 1011.50 1011.55
1002.68 1002.88 1003.12 1003.35 1003.57 1003.78 1003.99 1004.26 1004.59 1005.02 1005.53 1006.10 1006.68 1007.24 1007.73 1008.12 1008.39 1008.57 1008.69 1008.77 1008.87 1009.00 1009.20 1009.46 1009.76 1010.07 1010.35 1010.58 1010.74 1010.81 1010.82 1010.76 1010.69 1010.62 1010.56 1010.54 1010.56 1010.61 1010.68 1010.77 1010.85 1010.93 1010.98
1003.47 1003.42 1003.39 1003.35 1003.34 1003.35 1003.41 1003.56 1003.83 1004.20 1004.67 1005.20 1005.76 1006.30 1006.79 1007.18 1007.49 1007.71 1007.88 1008.03 1008.19 1008.40 1008.65 1008.94 1009.26 1009.56 1009.84 1010.06 1010.20 1010.26 1010.26 1010.20 1010.13 1010.06 1010.01 1010.00 1010.02 1010.07 1010.13 1010.21 1010.28 1010.34 1010.37
1004.34 1004.06 1003.77 1003.51 1003.27 1003.10 1003.02 1003.05 1003.22 1003.51 1003.91 1004.39 1004.90 1005.40 1005.87 1006.26 1006.59 1006.86 1007.10 1007.33 1007.57 1007.84 1008.15 1008.48 1008.82 1009.13 1009.39 1009.58 1009.70 1009.74 1009.71 1009.65 1009.58 1009.51 1009.47 1009.46 1009.48 1009.53 1009.60 1009.66 1009.71 1009.73 1009.72
1005.20 1004.74 1004.27 1003.82 1003.42 1003.10 1002.89 1002.81 1002.88 1003.09 1003.41 1003.80 1004.24 1004.69 1005.11 1005.49 1005.83 1006.14 1006.43 1006.73 1007.05 1007.39 1007.75 1008.12 1008.47 1008.77 1009.01 1009.17 1009.25 1009.26 1009.21 1009.13 1009.05 1008.99 1008.95 1008.95 1008.98 1009.03 1009.08 1009.13 1009.15 1009.14 1009.09
1006.00 1005.44 1004.86 1004.30 1003.79 1003.38 1003.09 1002.93 1002.91 1003.03 1003.25 1003.56 1003.91 1004.27 1004.64 1004.99 1005.32 1005.64 1005.98 1006.32 1006.69 1007.08 1007.48 1007.86 1008.21 1008.50 1008.71 1008.83 1008.88 1008.85 1008.77 1008.68 1008.59 1008.52 1008.49 1008.49 1008.52 1008.58 1008.63 1008.66 1008.66 1008.62 1008.54
1006.71 1006.12 1005.51 1004.92 1004.39 1003.95 1003.61 1003.40 1003.32 1003.36 1003.50 1003.71 1003.96 1004.24 1004.53 1004.82 1005.12 1005.44 1005.78 1006.14 1006.53 1006.94 1007.35 1007.73 1008.06 1008.32 1008.49 1008.58 1008.59 1008.53 1008.43 1008.31 1008.21 1008.14 1008.11 1008.12 1008.15 1008.20 1008.25 1008.28 1008.27 1008.21 1008.11
1007.31 1006.77 1006.20 1005.66 1005.16 1004.74 1004.41 1004.19 1004.08 1004.06 1004.12 1004.24 1004.39 1004.58 1004.79 1005.01 1005.26 1005.54 1005.85 1006.20 1006.57 1006.97 1007.35 1007.70 1008.00 1008.22 1008.36 1008.41 1008.38 1008.30 1008.18 1008.06 1007.95 1007.88 1007.84 1007.85 1007.88 1007.93 1007.97 1007.99 1007.98 1007.92 1007.82
1007.82 1007.37 1006.90 1006.45 1006.03 1005.67 1005.39 1005.18 1005.06 1005.00 1005.00 1005.05 1005.13 1005.23 1005.35 1005.50 1005.68 1005.90 1006.16 1006.46 1006.79 1007.13 1007.46 1007.77 1008.02 1008.20 1008.30 1008.32 1008.27 1008.18 1008.05 1007.92 1007.81 1007.73 1007.69 1007.69 1007.71 1007.74 1007.77 1007.78 1007.77 1007.72 1007.64
1008.24 1007.91 1007.56 1007.22 1006.91 1006.63 1006.40 1006.23 1006.12 1006.04 1006.01 1006.00 1006.02 1006.05 1006.10 1006.18 1006.29 1006.44 1006.63 1006.86 1007.12 1007.39 1007.66 1007.90 1008.10 1008.23 1008.30 1008.30 1008.25 1008.15 1008.03 1007.91 1007.79 1007.71 1007.65 1007.62 1007.61 1007.61 1007.62 1007.62 1007.60 1007.56 1007.50
1008.60 1008.38 1008.15 1007.91 1007.70 1007.50 1007.33 1007.20 1007.10 1007.03 1006.98 1006.94 1006.92 1006.90 1006.90 1006.92 1006.97 1007.05 1007.17 1007.33 1007.51 1007.70 1007.90 1008.08 1008.22 1008.32 1008.36 1008.36 1008.31 1008.22 1008.12 1008.00 1007.89 1007.79 1007.70 1007.63 1007.58 1007.54 1007.50 1007.46 1007.42 1007.37 1007.32
1008.91 1008.78 1008.63 1008.48 1008.34 1008.20 1008.08 1007.99 1007.91 1007.84 1007.79 1007.74 1007.70 1007.66 1007.64 1007.62 1007.63 1007.66 1007.72 1007.81 1007.92 1008.04 1008.17 1008.29 1008.39 1008.46 1008.50 1008.50 1008.46 1008.40 1008.31 1008.20 1008.09 1007.97 1007.85 1007.73 1007.61 1007.50 1007.39 1007.29 1007.20 1007.13 1007.07
1009.19 1009.11 1009.01 1008.91 1008.81 1008.71 1008.62 1008.54 1008.47 1008.42 1008.38 1008.34 1008.30 1008.27 1008.24 1008.21 1008.20 1008.21 1008.23 1008.27 1008.32 1008.39 1008.47 1008.55 1008.62 1008.67 1008.71 1008.72 1008.71 1008.67 1008.61 1008.51 1008.39 1008.25 1008.09 1007.91 1007.72 1007.52 1007.33 1007.15 1006.99 1006.86 1006.77
Thickness
5829 5828 5825 5821 5816 5810 5806 5802 5798 5794 5791 5786 5780 5776 5774 5774 5773 5772 5771 5768 5766 5764 5762 5760 5758 5756 5754 5753 5753 5751 5750 5749 5750 5747 5746 5750 5753 5754 5755 5755 5755 5754 5754
5827 5827 5825 5822 5818 5813 5809 5805 5801 5798 5795 5791 5787 5783 5780 5777 5776 5775 5773 5772 5770 5767 5765 5762 5760 5758 5755 5754 5753 5751 5748 5748 5749 5744 5739 5737 5741 5749 5754 5754 5753 5753 5753
5831 5829 5826 5824 5821 5817 5814 5811 5806 5802 5799 5796 5790 5786 5781 5778 5776 5774 5774 5774 5772 5770 5767 5765 5763 5760 5758 5755 5754 5752 5749 5745 5747 5746 5740 5733 5730 5737 5746 5750 5751 5752 5751
5837 5833 5830 5826 5824 5823 5820 5816 5810 5806 5802 5798 5792 5786 5780 5776 5777 5777 5776 5775 5774 5772 5769 5767 5765 5762 5760 5757 5756 5755 5752 5748 5744 5745 5745 5743 5740 5734 5734 5742 5746 5749 5749
5842 5838 5837 5833 5831 5828 5823 5818 5813 5808 5805 5801 5796 5790 5785 5783 5781 5779 5777 5775 5774 5773 5771 5769 5767 5764 5762 5760 5758 5756 5754 5751 5747 5744 5743 5742 5740 5738 5732 5731 5737 5742 5746
5845 5842 5840 5836 5831 5828 5824 5819 5813 5809 5807 5803 5799 5794 5789 5785 5781 5779 5776 5775 5773 5772 5772 5770 5768 5766 5764 5762 5760 5758 5755 5753 5750 5747 5745 5742 5739 5736 5734 5730 5732 5734 5741
5843 5840 5836 5832 5829 5827 5824 5820 5814 5810 5807 5804 5800 5796 5792 5788 5784 5781 5778 5775 5773 5772 5772 5772 5770 5767 5766 5764 5761 5758 5756 5754 5751 5749 5746 5745 5743 5741 5738 5733 5730 5731 5735
5840 5838 5836 5833 5831 5828 5825 5820 5815 5811 5808 5804 5800 5798 5794 5791 5787 5784 5781 5778 5776 5775 5775 5773 5771 5769 5767 5765 5762 5759 5756 5754 5751 5750 5747 5745 5744 5743 5740 5736 5731 5727 5728
5839 5838 5837 5833 5830 5828 5825 5821 5816 5811 5808 5805 5801 5797 5795 5792 5789 5786 5784 5781 5779 5778 5776 5774 5771 5769 5767 5764 5761 5758 5756 5754 5751 5749 5747 5745 5743 5743 5741 5739 5735 5728 5722
5837 5837 5835 5833 5832 5829 5825 5821 5815 5811 5807 5804 5801 5799 5795 5793 5790 5787 5784 5782 5781 5779 5777 5774 5772 5769 5767 5764 5761 5758 5756 5752 5750 5748 5746 5744 5742 5741 5739 5737 5735 5732 5726
5831 5833 5833 5832 5830 5826 5822 5817 5813 5809 5804 5802 5800 5797 5795 5792 5790 5787 5785 5783 5781 5779 5776 5774 5771 5769 5766 5763 5759 5757 5754 5751 5748 5745 5743 5741 5740 5738 5736 5734 5732 5730 5726
5829 5829 5829 5827 5824 5821 5817 5813 5810 5807 5804 5802 5799 5796 5794 5792 5789 5786 5785 5783 5780 5778 5775 5773 5770 5767 5764 5761 5758 5755 5753 5749 5746 5743 5740 5738 5738 5735 5733 5731 5729 5727 5725
5821 5821 5820 5818 5817 5816 5814 5810 5808 5805 5803 5800 5796 5792 5791 5790 5788 5786 5784 5782 5779 5776 5773 5770 5767 5765 5763 5760 5757 5754 5751 5748 5745 5742 5738 5736 5734 5731 5729 5727 5724 5723 5722
5811 5811 5810 5811 5811 5810 5809 5806 5804 5802 5799 5796 5792 5789 5788 5787 5785 5784 5781 5779 5776 5773 5771 5768 5765 5763 5761 5758 5755 5752 5749 5745 5742 5740 5736 5733 5731 5728 5725 5723 5720 5718 5715
5800 5800 5800 5802 5803 5802 5800 5798 5798 5797 5795 5791 5787 5786 5785 5783 5781 5779 5777 5775 5772 5771 5768 5765 5761 5759 5757 5755 5752 5749 5746 5741 5738 5735 5733 5730 5728 5726 5722 5719 5715 5713 5709
5791 5792 5793 5792 5793 5793 5792 5790 5790 5790 5788 5785 5782 5782 5780 5778 5776 5774 5772 5770 5767 5765 5762 5759 5757 5754 5753 5752 5749 5746 5742 5738 5734 5730 5727 5725 5723 5720 5717 5715 5712 5709 5705
5782 5783 5782 5784 5785 5785 5785 5783 5783 5782 5780 5777 5775 5774 5773 5771 5770 5769 5765 5763 5761 5759 5755 5753 5751 5748 5747 5746 5743 5741 5737 5733 5729 5725 5721 5720 5717 5713 5710 5707 5706 5704 5703
5774 5775 5776 5777 5778 5778 5777 5777 5776 5773 5771 5768 5766 5765 5765 5764 5763 5761 5759 5757 5755 5752 5749 5746 5744 5742 5741 5739 5737 5733 5730 5726 5723 5720 5717 5713 5709 5707 5703 5700 5698 5696 5695
5768 5769 5769 5769 5768 5767 5768 5767 5764 5763 5762 5760 5760 5759 5759 5757 5755 5754 5753 5752 5749 5745 5742 5739 5736 5734 5733 5732 5730 5726 5723 5719 5716 5714 5711 5707 5703 5701 5697 5693 5689 5687 5686
5762 5761 5761 5760 5758 5758 5759 5757 5754 5752 5751 5752 5753 5752 5752 5750 5748 5747 5746 5745 5742 5739 5735 5731 5729 5727 5725 5725 5722 5719 5716 5712 5709 5706 5704 5701 5697 5695 5690 5686 5682 5678 5677
5752 5752 5751 5748 5748 5748 5747 5744 5742 5742 5744 5745 5745 5744 5744 5742 5740 5738 5736 5734 5731 5728 5725 5723 5721 5719 5719 5717 5715 5713 5710 5706 5701 5698 5695 5693 5690 5687 5684 5680 5677 5674 5672
5737 5739 5738 5737 5738 5739 5736 5733 5732 5735 5736 5736 5734 5734 5734 5733 5732 5728 5726 5724 5721 5718 5716 5714 5713 5712 5710 5709 5707 5705 5703 5700 5694 5691 5689 5687 5683 5679 5676 5673 5670 5667 5664
5726 5727 5726 5725 5725 5726 5725 5722 5724 5725 5725 5724 5723 5723 5723 5722 5721 5718 5716 5714 5712 5710 5708 5707 5704 5703 5701 5700 5699 5696 5694 5692 5689 5685 5682 5679 5674 5671 5668 5665 5662 5659 5655
5715 5716 5714 5712 5712 5713 5713 5713 5714 5714 5713 5712 5711 5711 5710 5709 5709 5707 5706 5704 5702 5700 5698 5697 5694 5693 5691 5690 5689 5687 5684 5682 5680 5676 5672 5669 5665 5662 5659 5656 5653 5650 5647
5705 5705 5702 5700 5700 5702 5702 5703 5703 5702 5700 5699 5699 5699 5698 5697 5696 5696 5694 5693 5693 5692 5690 5689 5687 5685 5684 5684 5682 5679 5676 5674 5671 5666 5660 5656 5654 5651 5648 5646 5643 5641 5638
5692 5692 5691 5690 5690 5691 5691 5692 5692 5690 5688 5687 5687 5686 5685 5685 5684 5683 5682 5682 5683 5683 5682 5681 5680 5679 5678 5675 5672 5670 5668 5664 5660 5655 5651 5648 5645 5643 5641 5638 5635 5632 5630